• In Belarus
  • List of Countries
  • For 7 days
  • Water Temperature
  • Satellite Maps
  • Weather Map
  • Weather Widgets
  • user-avatar
    Login

    Hourly Weather Chumats'ke

    Today, 26 May, Saturday

    Time Temperature Precipitation Wind Pressure Humidity
    00:00 +17°C° 0 mm 6 mps 746 mmHg 85%
    01:00 +17°C° 0 mm 6 mps 746 mmHg 84%
    02:00 +17°C° 0 mm 5 mps 746 mmHg 86%
    03:00 +17°C° 0.1 mm 6 mps 746 mmHg 86%
    04:00 +17°C° 0.1 mm 7 mps 746 mmHg 86%
    05:00 +17°C° 0.1 mm 7 mps 747 mmHg 86%
    06:00 +17°C° 0 mm 8 mps 747 mmHg 83%
    07:00 +17°C° 0 mm 8 mps 748 mmHg 80%
    08:00 +17°C° 0 mm 9 mps 749 mmHg 77%
    09:00 +18°C° 0 mm 9 mps 749 mmHg 69%
    10:00 +18°C° 0 mm 9 mps 750 mmHg 62%
    11:00 +19°C° 0 mm 9 mps 750 mmHg 55%
    12:00 +19°C° 0 mm 9 mps 751 mmHg 53%
    13:00 +21°C° 0 mm 9 mps 751 mmHg 51%
    14:00 +21°C° 0 mm 9 mps 751 mmHg 48%
    15:00 +19°C° 0 mm 9 mps 752 mmHg 50%
    16:00 +18°C° 0 mm 9 mps 752 mmHg 51%
    17:00 +18°C° 0 mm 8 mps 752 mmHg 52%
    18:00 +16°C° 0 mm 7 mps 752 mmHg 55%
    19:00 +15°C° 0 mm 7 mps 752 mmHg 57%
    20:00 +14°C° 0 mm 6 mps 753 mmHg 60%
    21:00 +13°C° 0 mm 6 mps 753 mmHg 60%
    22:00 +13°C° 0 mm 6 mps 753 mmHg 59%
    23:00 +11°C° 0 mm 6 mps 753 mmHg 59%

    Tomorrow, 27 May, Sunday

    Time Temperature Precipitation Wind Pressure Humidity
    00:00 +11°C° 0 mm 6 mps 753 mmHg 58%
    01:00 +10°C° 0 mm 6 mps 753 mmHg 58%
    02:00 +10°C° 0 mm 6 mps 753 mmHg 58%
    03:00 +10°C° 0 mm 7 mps 753 mmHg 59%
    04:00 +9°C° 0 mm 7 mps 753 mmHg 61%
    05:00 +9°C° 0 mm 7 mps 753 mmHg 63%
    06:00 +11°C° 0 mm 7 mps 754 mmHg 59%
    07:00 +12°C° 0 mm 8 mps 754 mmHg 56%
    08:00 +15°C° 0 mm 8 mps 754 mmHg 53%
    09:00 +16°C° 0 mm 8 mps 754 mmHg 50%
    10:00 +17°C° 0 mm 8 mps 754 mmHg 48%
    11:00 +18°C° 0 mm 8 mps 753 mmHg 45%
    12:00 +20°C° 0 mm 8 mps 753 mmHg 45%
    13:00 +20°C° 0 mm 8 mps 753 mmHg 44%
    14:00 +21°C° 0 mm 8 mps 752 mmHg 44%
    15:00 +20°C° 0 mm 7 mps 752 mmHg 46%
    16:00 +20°C° 0 mm 7 mps 752 mmHg 48%
    17:00 +20°C° 0 mm 6 mps 751 mmHg 50%
    18:00 +17°C° 0 mm 6 mps 751 mmHg 56%
    19:00 +15°C° 0 mm 5 mps 751 mmHg 61%
    20:00 +13°C° 0 mm 4 mps 751 mmHg 66%
    21:00 +13°C° 0 mm 4 mps 751 mmHg 66%
    22:00 +12°C° 0 mm 4 mps 751 mmHg 66%
    23:00 +12°C° 0 mm 5 mps 751 mmHg 66%

    Day after tomorrow, 28 May, Monday

    Time Temperature Precipitation Wind Pressure Humidity
    00:00 +10°C° 0 mm 5 mps 751 mmHg 65%
    01:00 +10°C° 0 mm 5 mps 751 mmHg 65%
    02:00 +10°C° 0 mm 4 mps 751 mmHg 64%
    03:00 +9°C° 0 mm 5 mps 751 mmHg 64%
    04:00 +9°C° 0 mm 5 mps 751 mmHg 64%
    05:00 +9°C° 0 mm 5 mps 751 mmHg 63%
    06:00 +11°C° 0 mm 6 mps 751 mmHg 58%
    07:00 +15°C° 0 mm 6 mps 751 mmHg 52%
    08:00 +17°C° 0 mm 7 mps 752 mmHg 47%
    09:00 +18°C° 0 mm 7 mps 752 mmHg 45%
    10:00 +20°C° 0 mm 7 mps 752 mmHg 42%
    11:00 +22°C° 0 mm 7 mps 752 mmHg 40%
    12:00 +22°C° 0 mm 7 mps 752 mmHg 40%
    13:00 +23°C° 0 mm 6 mps 752 mmHg 40%
    14:00 +23°C° 0 mm 6 mps 752 mmHg 40%
    15:00 +23°C° 0 mm 6 mps 752 mmHg 43%
    16:00 +23°C° 0 mm 5 mps 751 mmHg 47%
    17:00 +23°C° 0 mm 5 mps 751 mmHg 50%
    18:00 +21°C° 0 mm 5 mps 752 mmHg 56%
    19:00 +19°C° 0 mm 4 mps 752 mmHg 63%
    20:00 +17°C° 0 mm 4 mps 752 mmHg 69%
    21:00 +17°C° 0 mm 4 mps 752 mmHg 72%
    22:00 +15°C° 0 mm 4 mps 752 mmHg 74%
    23:00 +15°C° 0 mm 4 mps 752 mmHg 77%

    29 May, Tuesday

    Time Temperature Precipitation Wind Pressure Humidity
    00:00 +15°C° 0 mm 5 mps 752 mmHg 77%
    01:00 +15°C° 0 mm 5 mps 753 mmHg 77%
    02:00 +14°C° 0 mm 6 mps 753 mmHg 78%
    03:00 +14°C° 0 mm 6 mps 753 mmHg 75%
    04:00 +13°C° 0 mm 6 mps 753 mmHg 72%
    05:00 +13°C° 0 mm 6 mps 753 mmHg 69%
    06:00 +14°C° 0 mm 7 mps 753 mmHg 64%
    07:00 +16°C° 0 mm 7 mps 753 mmHg 60%
    08:00 +17°C° 0 mm 7 mps 753 mmHg 55%
    09:00 +18°C° 0 mm 8 mps 753 mmHg 52%
    10:00 +20°C° 0 mm 8 mps 753 mmHg 48%
    11:00 +21°C° 0 mm 8 mps 753 mmHg 45%
    12:00 +22°C° 0 mm 8 mps 753 mmHg 44%
    13:00 +22°C° 0 mm 7 mps 752 mmHg 44%
    14:00 +22°C° 0 mm 7 mps 752 mmHg 43%
    15:00 +22°C° 0 mm 7 mps 751 mmHg 45%
    16:00 +21°C° 0 mm 7 mps 751 mmHg 47%
    17:00 +21°C° 0 mm 7 mps 751 mmHg 50%
    18:00 +19°C° 0 mm 6 mps 751 mmHg 55%
    19:00 +16°C° 0 mm 5 mps 751 mmHg 60%
    20:00 +14°C° 0 mm 4 mps 751 mmHg 65%
    21:00 +14°C° 0 mm 4 mps 750 mmHg 65%
    22:00 +13°C° 0 mm 5 mps 750 mmHg 65%
    23:00 +12°C° 0 mm 5 mps 750 mmHg 65%

    30 May, Wednesday

    Time Temperature Precipitation Wind Pressure Humidity
    00:00 +12°C° 0 mm 5 mps 750 mmHg 63%
    01:00 +12°C° 0 mm 5 mps 749 mmHg 61%
    02:00 +10°C° 0 mm 5 mps 749 mmHg 59%
    03:00 +10°C° 0 mm 5 mps 749 mmHg 59%
    04:00 +10°C° 0 mm 5 mps 749 mmHg 59%
    05:00 +10°C° 0 mm 6 mps 749 mmHg 59%
    06:00 +13°C° 0 mm 6 mps 749 mmHg 54%
    07:00 +15°C° 0 mm 6 mps 749 mmHg 48%
    08:00 +17°C° 0 mm 7 mps 749 mmHg 43%
    09:00 +20°C° 0 mm 7 mps 749 mmHg 40%
    10:00 +21°C° 0 mm 7 mps 748 mmHg 38%
    11:00 +22°C° 0 mm 7 mps 748 mmHg 36%
    12:00 +23°C° 0 mm 6 mps 748 mmHg 36%
    13:00 +23°C° 0 mm 6 mps 748 mmHg 37%
    14:00 +24°C° 0 mm 6 mps 747 mmHg 37%
    15:00 +25°C° 0 mm 5 mps 747 mmHg 40%
    16:00 +23°C° 0 mm 5 mps 747 mmHg 43%
    17:00 +23°C° 0 mm 5 mps 746 mmHg 45%
    18:00 +21°C° 0 mm 4 mps 746 mmHg 51%
    19:00 +19°C° 0 mm 3 mps 746 mmHg 57%
    20:00 +17°C° 0 mm 3 mps 746 mmHg 63%
    21:00 +16°C° 0 mm 3 mps 746 mmHg 64%
    22:00 +16°C° 0 mm 3 mps 746 mmHg 65%
    23:00 +14°C° 0 mm 3 mps 746 mmHg 66%

    31 May, Thursday

    Time Temperature Precipitation Wind Pressure Humidity
    00:00 +14°C° 0 mm 3 mps 745 mmHg 66%
    01:00 +13°C° 0 mm 3 mps 745 mmHg 67%
    02:00 +13°C° 0 mm 3 mps 745 mmHg 67%
    03:00 +13°C° 0 mm 3 mps 745 mmHg 68%
    04:00 +13°C° 0 mm 4 mps 745 mmHg 68%
    05:00 +13°C° 0 mm 4 mps 745 mmHg 68%
    06:00 +15°C° 0 mm 4 mps 745 mmHg 62%
    07:00 +19°C° 0 mm 5 mps 745 mmHg 56%
    08:00 +21°C° 0 mm 5 mps 745 mmHg 49%
    09:00 +23°C° 0 mm 5 mps 745 mmHg 46%
    10:00 +25°C° 0 mm 5 mps 744 mmHg 42%
    11:00 +26°C° 0 mm 5 mps 744 mmHg 38%
    12:00 +27°C° 0 mm 5 mps 744 mmHg 37%
    13:00 +27°C° 0 mm 4 mps 744 mmHg 36%
    14:00 +28°C° 0 mm 4 mps 744 mmHg 35%
    15:00 +28°C° 0 mm 4 mps 743 mmHg 38%
    16:00 +27°C° 0 mm 3 mps 743 mmHg 40%
    17:00 +27°C° 0 mm 3 mps 743 mmHg 43%
    18:00 +25°C° 0 mm 3 mps 743 mmHg 49%
    19:00 +23°C° 0 mm 2 mps 743 mmHg 54%
    20:00 +19°C° 0 mm 2 mps 743 mmHg 60%
    21:00 +19°C° 0 mm 2 mps 743 mmHg 62%
    22:00 +18°C° 0 mm 2 mps 743 mmHg 63%
    23:00 +18°C° 0 mm 2 mps 743 mmHg 65%
    Show more